Wind_Speed
21 25 28 32 35 34 34 34 32 29 34 35 35 35 39 39 40 41 42 42 42 42 39 35 34 35 38 42 45 48 48 46 46 44 52 54 55 60 60 59 64 60 62 61
20 24 32 31 32 35 35 35 34 35 36 34 36 34 40 41 41 42 42 42 40 34 33 34 34 36 38 40 43 45 45 44 47 54 53 52 58 59 57 63 62 65 64 63
23 27 27 32 33 33 34 35 37 37 39 35 35 27 34 37 39 40 39 33 32 32 33 34 35 38 42 42 42 41 45 49 51 56 50 53 53 59 61 59 60 62 64 62
26 27 26 30 32 35 34 37 36 36 34 23 32 22 34 36 37 36 32 31 32 34 35 38 42 45 44 42 43 45 50 53 52 48 48 50 61 66 68 64 60 63 67 61
23 25 30 29 30 34 35 35 34 34 33 32 27 27 32 33 35 31 31 32 35 35 39 43 44 43 43 44 48 50 47 45 45 43 50 61 66 65 57 58 60 63 62 63
22 21 23 26 31 34 36 35 35 35 35 29 24 28 30 28 28 31 32 35 36 40 42 41 41 42 43 45 45 45 46 48 45 49 54 56 57 55 60 62 60 60 63 65
19 20 21 22 23 24 26 27 21 18 16 15 25 23 27 27 30 31 34 37 40 41 39 38 39 40 43 47 48 49 49 49 52 49 51 47 51 56 58 58 59 62 63 64
17 19 19 20 19 19 19 20 15 15 13 13 21 20 27 29 30 32 36 39 39 36 35 35 38 42 46 48 50 49 48 46 45 46 47 51 55 53 53 55 60 60 60 58
17 19 18 16 14 13 14 14 15 16 17 17 19 24 29 30 31 35 37 37 32 32 33 37 40 44 47 47 47 45 44 44 44 48 49 50 49 50 56 57 60 59 57 50
16 15 14 13 12 12 11 12 12 14 16 12 20 28 30 33 36 36 34 30 29 32 35 39 43 46 46 45 43 42 42 43 47 49 50 51 51 54 57 57 57 55 52 48
13 12 12 12 11 11 12 14 16 18 19 20 20 30 32 34 31 29 27 28 30 33 37 41 43 45 44 44 45 45 45 46 48 49 49 51 54 56 56 55 54 52 48 46
12 13 13 13 12 13 15 17 18 20 25 23 26 35 29 26 24 24 26 28 32 35 38 41 44 45 45 45 45 45 45 46 47 50 51 53 54 55 54 53 51 49 46 45
13 13 11 10 12 14 14 15 19 22 24 23 21 25 21 20 23 26 28 30 33 36 39 42 45 47 46 46 46 44 47 46 46 48 52 54 54 53 52 51 49 47 46 45
11 11 12 11 10 11 15 15 13 13 15 17 17 18 19 21 24 26 28 30 34 38 41 44 47 50 48 48 47 47 47 48 49 51 52 52 51 49 49 48 47 45 45 44
14 13 12 10 12 12 11 11 13 15 15 15 16 18 20 23 25 26 29 33 37 40 43 45 48 50 46 45 45 46 49 50 50 51 49 47 48 48 48 46 44 44 44 43
15 13 11 12 9 10 11 12 14 13 13 14 16 19 21 23 25 27 31 35 38 40 43 45 47 47 42 44 46 49 49 48 47 46 46 47 47 47 46 43 42 41 42 41
15 13 10 7 10 11 12 13 13 13 14 15 16 19 21 24 26 30 33 36 38 41 43 44 47 45 43 46 48 49 47 44 44 44 45 46 47 46 43 40 39 40 41 41
10 8 8 9 9 11 12 12 13 14 13 15 17 20 23 26 28 31 34 36 38 40 41 45 47 43 44 45 49 47 43 42 43 44 45 46 45 43 40 38 38 39 40 40
10 9 8 7 10 11 11 13 12 13 14 15 18 22 25 27 28 31 33 36 39 40 41 47 46 43 43 47 47 42 40 42 44 45 46 45 43 40 37 36 36 38 39 39
11 8 6 8 9 10 11 10 12 13 13 18 21 23 25 28 30 33 35 38 39 40 43 48 44 42 44 46 41 38 41 43 45 46 46 45 41 37 34 34 35 37 38 38
10 8 7 8 9 9 11 11 12 14 16 19 22 25 27 30 32 34 36 39 39 40 47 46 42 42 43 42 37 40 43 45 46 46 46 44 39 34 32 32 34 36 38 37
12 10 8 9 9 10 10 12 14 16 19 21 24 27 30 32 33 35 38 39 39 45 46 42 40 41 41 38 38 42 45 46 47 46 44 41 35 31 30 30 32 35 37 36
14 12 11 11 10 11 11 14 16 18 21 23 26 29 32 33 34 36 38 38 42 46 41 39 40 40 38 37 41 45 47 47 46 44 42 37 31 28 28 28 31 33 35 35
16 15 14 12 12 13 14 16 17 19 24 25 28 31 32 33 35 36 38 41 46 42 38 39 39 37 36 40 45 46 48 46 43 42 40 34 27 26 26 27 30 33 34 33
16 16 16 15 16 15 16 18 19 22 26 27 29 31 32 33 35 36 39 42 44 38 38 37 36 36 38 44 47 47 45 43 41 40 37 30 25 24 24 27 29 31 32 32
17 17 17 17 18 18 19 20 21 24 26 28 30 31 32 33 33 35 40 43 40 37 37 35 34 37 42 45 46 44 43 42 39 39 34 27 23 22 23 25 27 30 31 31
Wind_Direction
246 238 236 239 237 241 249 258 275 274 277 284 290 294 290 293 294 295 298 301 303 301 304 305 304 302 298 296 298 300 302 302 301 303 310 306 301 303 302 312 314 315 315 315
248 242 239 240 244 245 252 259 265 269 273 279 285 288 290 290 292 296 299 301 302 305 306 306 306 305 307 307 305 304 304 303 307 315 311 303 300 300 311 318 315 314 316 317
240 246 244 242 246 250 255 259 265 269 277 282 283 297 292 296 297 299 304 307 309 308 307 308 309 310 310 308 306 308 308 308 309 313 306 300 299 310 314 313 315 320 321 317
240 245 246 246 249 253 258 261 266 272 277 279 286 286 289 294 298 303 305 306 308 311 312 312 313 312 311 310 311 308 310 313 312 309 300 302 303 311 314 308 313 317 318 316
253 249 247 250 251 256 257 264 268 272 277 280 290 290 277 287 301 302 304 308 313 317 315 314 313 315 315 315 316 316 316 309 309 298 295 307 309 310 314 315 313 316 318 318
259 260 262 259 258 259 263 267 271 275 278 283 273 284 278 287 294 299 307 314 316 315 315 314 314 316 319 321 321 316 309 311 307 298 298 304 312 309 315 320 318 319 319 318
257 263 265 266 267 268 269 272 273 275 283 279 276 289 283 291 300 306 311 315 314 315 315 316 320 325 324 321 319 318 315 309 313 313 311 312 316 317 319 321 319 319 320 319
253 266 259 264 269 271 271 269 262 274 272 272 286 286 292 297 302 309 313 313 316 316 319 324 325 326 324 322 319 318 318 319 317 319 320 316 316 319 320 321 321 323 323 320
251 255 264 268 270 269 269 267 270 277 278 282 276 293 294 302 307 309 314 315 316 322 325 325 328 327 325 322 321 325 324 323 324 322 319 320 321 321 321 323 325 325 322 323
248 250 256 261 265 265 265 272 275 276 287 290 288 292 297 306 311 312 314 319 325 326 326 327 328 328 328 328 329 328 329 328 323 320 320 321 321 323 324 326 326 323 323 325
238 236 251 254 260 270 278 274 274 279 283 287 288 285 306 305 309 315 323 326 325 327 328 329 331 333 333 331 330 329 327 323 322 324 325 326 326 325 325 325 325 326 327 326
228 233 246 257 263 268 269 275 285 288 290 293 294 294 303 312 318 323 324 325 328 328 329 332 336 338 335 331 330 326 325 325 325 325 327 328 328 327 326 326 327 328 328 327
235 232 250 262 263 266 279 286 288 288 289 290 296 304 315 319 322 324 325 326 326 328 332 337 342 341 335 332 331 327 328 328 328 328 328 327 326 327 327 328 330 329 329 331
231 233 232 243 264 291 299 300 303 304 305 309 310 312 317 320 323 326 325 325 327 330 333 337 342 341 334 330 329 327 327 326 325 326 328 328 329 329 329 329 329 330 332 334
230 228 230 250 284 292 296 298 302 308 310 313 315 317 320 324 328 324 325 328 329 330 333 337 338 337 330 331 332 331 328 327 327 328 329 330 330 331 330 328 329 332 335 334
234 228 241 268 274 276 288 298 301 305 308 309 313 318 322 326 325 326 327 329 330 332 333 333 334 333 331 332 331 329 329 329 330 331 331 332 332 331 330 329 332 335 336 336
237 250 248 254 268 283 296 299 304 307 311 315 319 321 324 325 327 327 329 329 330 332 331 332 333 332 332 331 331 330 331 333 332 333 333 334 333 331 330 332 335 336 339 340
202 214 238 260 284 298 306 307 308 310 314 316 318 322 324 328 328 329 329 331 333 330 331 333 333 331 331 331 332 332 334 334 334 335 335 334 333 332 333 335 338 339 342 342
202 229 255 287 298 304 305 301 304 310 317 320 323 327 329 328 328 330 333 335 334 332 332 335 332 330 332 332 333 334 335 337 337 336 336 335 335 335 336 338 340 342 343 345
217 236 264 283 297 302 301 300 307 313 322 323 328 329 329 329 331 336 338 338 335 332 334 335 331 332 334 333 333 334 337 337 337 338 336 336 337 337 338 340 343 344 345 347
226 238 256 285 299 302 302 305 309 313 324 326 329 330 332 333 336 338 339 338 336 334 335 333 333 334 334 334 334 337 337 336 337 336 336 337 337 337 340 343 346 347 348 350
231 237 256 281 296 300 300 303 309 319 326 326 330 332 333 335 336 336 339 340 338 336 333 334 336 335 335 335 335 336 336 337 336 335 336 337 337 339 342 346 349 350 351 352
232 241 254 272 293 299 297 302 307 318 322 325 330 332 332 333 333 335 340 341 340 337 336 338 337 336 336 335 336 337 337 337 336 336 337 338 338 341 344 350 351 351 353 354
241 248 256 267 282 290 299 302 306 315 320 326 328 329 329 330 331 336 342 342 340 339 340 339 337 337 336 338 340 339 339 338 338 338 339 339 340 344 348 353 354 355 356 357
248 254 260 266 274 285 294 299 305 310 317 322 325 326 327 328 331 338 342 342 341 341 340 339 338 340 339 342 342 342 341 341 341 341 342 341 343 347 353 355 358 358 358 0
250 258 264 266 273 281 289 297 302 308 314 318 322 325 325 326 333 340 343 341 342 340 339 340 342 342 343 345 346 347 346 344 346 346 344 344 347 351 354 358 2 1 1 3
Height
5850 5852 5856 5858 5857 5860 5863 5864 5865 5867 5865 5865 5866 5865 5859 5856 5852 5849 5845 5841 5837 5833 5827 5821 5816 5810 5805 5799 5794 5787 5780 5773 5766 5759 5751 5742 5732 5723 5714 5704 5697 5687 5677 5666
5847 5848 5848 5852 5853 5855 5858 5860 5862 5861 5861 5862 5861 5861 5854 5849 5846 5843 5839 5835 5830 5825 5820 5814 5809 5803 5798 5792 5785 5778 5771 5764 5757 5749 5741 5732 5722 5711 5701 5693 5685 5675 5665 5655
5843 5843 5845 5847 5849 5851 5853 5854 5856 5856 5854 5856 5855 5858 5841 5842 5840 5837 5832 5827 5823 5818 5813 5808 5803 5797 5791 5784 5777 5770 5763 5756 5748 5740 5731 5722 5710 5700 5692 5683 5675 5665 5654 5644
5838 5839 5841 5842 5845 5846 5849 5847 5849 5850 5852 5855 5850 5857 5841 5836 5834 5831 5826 5821 5817 5812 5807 5801 5795 5788 5782 5775 5769 5762 5754 5747 5738 5730 5722 5709 5700 5691 5682 5674 5664 5653 5644 5633
5835 5836 5837 5839 5841 5840 5843 5843 5844 5844 5845 5846 5845 5846 5834 5831 5828 5824 5821 5817 5812 5806 5800 5794 5787 5780 5773 5767 5759 5752 5744 5736 5729 5721 5710 5700 5692 5684 5673 5662 5653 5643 5633 5623
5831 5832 5834 5835 5835 5836 5837 5838 5838 5838 5838 5840 5838 5839 5830 5828 5824 5820 5816 5811 5806 5800 5793 5786 5780 5773 5766 5759 5751 5743 5735 5727 5720 5712 5703 5693 5683 5673 5663 5652 5642 5632 5621 5611
5829 5829 5829 5829 5830 5831 5832 5833 5835 5836 5836 5836 5830 5829 5825 5822 5819 5815 5810 5805 5799 5792 5786 5780 5773 5766 5759 5751 5743 5734 5726 5718 5710 5701 5692 5682 5673 5663 5653 5642 5632 5621 5609 5599
5825 5825 5825 5825 5827 5828 5828 5829 5831 5830 5832 5832 5825 5822 5819 5816 5813 5809 5804 5798 5791 5786 5780 5774 5767 5760 5752 5744 5735 5726 5718 5709 5701 5692 5682 5673 5663 5653 5642 5632 5622 5610 5599 5589
5821 5820 5821 5822 5822 5824 5823 5824 5825 5824 5824 5823 5820 5817 5813 5811 5807 5803 5797 5791 5786 5780 5774 5768 5761 5754 5745 5736 5727 5718 5710 5701 5692 5683 5673 5664 5654 5644 5634 5623 5612 5602 5591 5581
5816 5817 5818 5818 5819 5820 5820 5821 5822 5820 5820 5820 5815 5811 5807 5804 5800 5796 5791 5785 5780 5775 5769 5763 5755 5747 5738 5729 5720 5711 5702 5693 5684 5675 5665 5656 5646 5636 5625 5614 5604 5593 5583 5574
5813 5815 5815 5816 5816 5817 5818 5817 5817 5816 5816 5814 5813 5805 5803 5799 5795 5790 5785 5781 5776 5770 5764 5757 5749 5740 5731 5722 5713 5704 5696 5687 5677 5668 5658 5648 5638 5627 5617 5606 5596 5586 5576 5567
5809 5811 5812 5812 5813 5813 5813 5813 5812 5812 5809 5808 5806 5800 5797 5793 5789 5785 5781 5777 5771 5765 5759 5751 5743 5734 5725 5716 5707 5698 5689 5679 5670 5660 5650 5640 5630 5619 5609 5599 5588 5578 5569 5561
5806 5808 5809 5810 5811 5810 5810 5809 5808 5807 5805 5802 5800 5795 5792 5789 5786 5781 5777 5772 5766 5760 5753 5745 5737 5728 5719 5709 5700 5691 5682 5673 5663 5653 5643 5633 5622 5612 5602 5592 5582 5573 5564 5554
5803 5804 5806 5807 5807 5807 5806 5804 5802 5801 5799 5797 5795 5791 5789 5786 5782 5777 5772 5767 5762 5755 5747 5739 5730 5721 5712 5703 5694 5685 5676 5666 5656 5646 5636 5625 5615 5605 5595 5586 5577 5568 5558 5549
5800 5801 5803 5804 5804 5803 5802 5800 5799 5797 5795 5793 5791 5788 5785 5781 5777 5773 5768 5763 5756 5749 5741 5733 5725 5716 5707 5698 5689 5679 5670 5660 5649 5639 5629 5619 5609 5599 5590 5581 5572 5562 5553 5544
5797 5799 5801 5801 5801 5800 5799 5797 5796 5794 5793 5790 5788 5785 5781 5778 5773 5769 5764 5758 5751 5744 5736 5728 5720 5711 5701 5692 5683 5673 5663 5653 5642 5633 5624 5613 5603 5594 5584 5575 5566 5557 5549 5539
5795 5796 5798 5798 5798 5797 5796 5794 5792 5791 5789 5787 5784 5781 5777 5774 5769 5764 5759 5753 5746 5739 5731 5723 5714 5704 5695 5686 5677 5667 5657 5647 5637 5628 5618 5608 5598 5588 5579 5570 5561 5553 5545 5536
5792 5794 5796 5796 5795 5794 5792 5791 5789 5788 5786 5784 5781 5777 5774 5769 5765 5760 5754 5748 5741 5734 5726 5717 5708 5698 5690 5681 5671 5661 5651 5642 5633 5623 5613 5603 5593 5583 5575 5566 5558 5550 5542 5534
5790 5792 5793 5793 5792 5791 5790 5788 5787 5785 5784 5781 5778 5774 5770 5765 5761 5755 5749 5743 5736 5728 5720 5712 5702 5693 5684 5675 5665 5656 5647 5638 5628 5619 5608 5598 5587 5578 5570 5562 5555 5547 5540 5532
5788 5789 5790 5790 5789 5788 5787 5786 5784 5782 5781 5777 5774 5770 5766 5762 5756 5750 5744 5737 5730 5723 5715 5706 5696 5687 5679 5669 5660 5652 5643 5634 5624 5614 5603 5593 5583 5574 5567 5560 5553 5546 5538 5530
5785 5785 5787 5786 5786 5786 5784 5783 5781 5780 5780 5774 5771 5767 5762 5757 5752 5745 5739 5732 5725 5718 5709 5700 5691 5682 5673 5665 5656 5648 5640 5630 5619 5609 5598 5588 5579 5571 5564 5558 5551 5544 5536 5528
5782 5783 5783 5783 5783 5784 5782 5780 5779 5777 5774 5770 5767 5762 5758 5752 5747 5741 5734 5727 5720 5712 5703 5694 5686 5678 5669 5661 5653 5645 5635 5625 5614 5604 5594 5585 5576 5569 5562 5556 5550 5543 5535 5527
5779 5780 5781 5781 5780 5779 5778 5777 5775 5773 5770 5766 5763 5758 5753 5748 5742 5736 5730 5723 5715 5707 5697 5689 5681 5673 5665 5658 5650 5641 5631 5620 5610 5600 5590 5582 5574 5567 5561 5555 5549 5542 5535 5527
5775 5776 5777 5778 5777 5776 5775 5773 5771 5769 5766 5762 5758 5754 5749 5743 5738 5732 5725 5718 5710 5701 5693 5685 5678 5670 5663 5656 5646 5636 5626 5616 5606 5596 5587 5579 5572 5566 5560 5555 5549 5542 5535 5528
5772 5773 5773 5773 5773 5772 5771 5769 5767 5764 5761 5758 5753 5749 5744 5739 5733 5727 5721 5713 5705 5697 5690 5682 5675 5668 5661 5652 5642 5632 5622 5612 5603 5593 5584 5577 5571 5566 5560 5554 5549 5543 5536 5530
5767 5768 5769 5769 5769 5768 5767 5765 5762 5760 5757 5753 5749 5745 5739 5734 5729 5723 5717 5709 5701 5694 5687 5679 5672 5666 5658 5648 5639 5629 5619 5609 5600 5591 5582 5575 5570 5565 5560 5555 5550 5544 5537 5531